Regional Weather Roundup
Issued by NWS

Home | Current Version | Previous Version | Text Only | Print | Product List | Glossary Off
Versions: 1 2 3 4 5 6 7 8 9 10 11 12 13 14 15 16 17 18 19 20 21 22 23 24 25 26 27 28 29 30 31 32 33 34 35 36 37 38 39 40 41 42 43 44 45 46 47 48 49 50

000
ASUS43 KMPX 180110
RWRMN
WEATHER ROUNDUP FOR MINNESOTA
NATIONAL WEATHER SERVICE TWIN CITIES/CHANHASSEN MN
800 PM CDT TUE OCT 17 2017


NOTE: "FAIR" INDICATES FEW OR NO CLOUDS BELOW 12,000 FEET WITH NO
SIGNIFICANT WEATHER AND/OR OBSTRUCTIONS TO VISIBILITY. N/A MEANS
CURRENT SKY AND/OR WEATHER CONDITIONS ARE NOT AVAILABLE.

MNZ060>063-068>070-180200-
   Twin Cities Metro

CITY           SKY/WX    TMP DP  RH WIND       PRES   REMARKS
TWIN CITIES    PTCLDY    65  43  44 S7        29.92S
ST PAUL        CLEAR     56  49  77 CALM      29.93S
CRYSTAL        CLEAR     54  44  69 S3        29.90S
BLAINE         CLEAR     57  45  62 S7        29.91S
LAKEVILLE      CLEAR     54  45  71 S3        29.94S
EDEN PRAIRIE   CLEAR     60  42  51 SE8       29.91S
SOUTH ST PAUL  CLEAR     57  47  69 CALM      29.92S
LAKE ELMO      FAIR      54  45  71 CALM      29.93S
$$
MNZ001>005-007-008-013>017-022>024-027-028-180200-
   Northwest Minnesota

CITY           SKY/WX    TMP DP  RH WIND       PRES   REMARKS
BEMIDJI        CLEAR     60  38  45 S8        29.76S
HALLOCK        CLEAR     59  28  31 S9        29.60F
ROSEAU         CLEAR     61  45  55 S13       29.64F
WARROAD        CLOUDY    63  43  48 S8        29.65F
THIEF RVR FALL CLEAR     61  39  44 S12       29.69F
CROOKSTON      CLEAR     64  41  42 S14       29.68F
FOSSTON        CLEAR     61  37  41 S15       29.74S
DETROIT LAKES  CLEAR     61  41  48 S7        29.79F
MOORHEAD       CLEAR     63  43  48 S12       29.75S
PARK RAPIDS    CLEAR     59  41  51 S12       29.79F
MAHNOMEN       FAIR      60  41  50 S15       29.74F
$$
MNZ006-009>011-018-025>026-180200-
   North Central Minnesota

CITY           SKY/WX    TMP DP  RH WIND       PRES   REMARKS
BAUDETTE       CLOUDY    60  38  43 S8        29.69F
FLAG ISLAND    MOCLDY    54  46  76 S10       29.63F
INTL FALLS     CLOUDY    60  37  42 S6        29.74S
WASKISH        CLEAR     61  39  44 S6        29.73F
BIG FORK       CLEAR     55  37  50 S7        29.79S
LONGVILLE      CLEAR     54  39  58 S7        29.81F
GRAND RAPIDS   CLEAR     59  39  47 S9        29.83F
CRANE LAKE     CLOUDY    52  37  58 S3        29.80S
ORR            CLEAR     57  34  41 S9        29.77F
COOK           CLEAR     57  37  47 SE5       29.81F
WALKER         FAIR      62  38  40 S8        29.78S
$$
MNZ012-019>021-037-180200-
   Northeast Minnesota

CITY           SKY/WX    TMP DP  RH WIND       PRES   REMARKS
DULUTH         CLEAR     55  40  56 S9        29.87F
ELY            CLEAR     57  36  44 S6        29.84S
HIBBING        CLEAR     56  37  49 S5        29.83S
EVELETH        CLEAR     54  23  29 S5        29.86S
DULUTH HARBOR  CLEAR     61  45  55 S9        29.87S
TWO HARBORS    CLEAR     54  43  66 CALM      29.86S
SILVER BAY     CLEAR     48  41  76 CALM      29.86S
GRAND MARAIS     N/A     46  43  89 N3        29.89S
G MARAIS ARPRT CLEAR     50  37  62 S3        29.90F
$$
MNZ029>031-032-039>041-046>048-054>057-064-180200-
   West Central Minnesota

CITY           SKY/WX    TMP DP  RH WIND       PRES   REMARKS
FERGUS FALLS   CLEAR     57  43  58 S8        29.80S
WHEATON        CLEAR     64  39  39 S12       29.82S
MORRIS         CLEAR     54  43  66 S6        29.83S
ALEXANDRIA     CLEAR     61  39  44 S12       29.86S
ELBOW LAKE     FAIR      52  43  70 S10       29.82F
WADENA         CLEAR     57  43  58 S8        29.82S
GLENWOOD       CLEAR     55  41  58 SE3       29.87S
APPLETON       CLEAR     66  34  30 S6        29.84S
BENSON         CLEAR     61  39  44 S8        29.87S
ORTONVILLE     CLEAR     63  41  45 N7        29.84R
MADISON        CLEAR     63  39  42 S8        29.86S
WILLMAR        FAIR      57  41  54 S6        29.89F
$$
MNZ033>034-036-042>043-049>051-058-059-180200-
   Central Minnesota

CITY           SKY/WX    TMP DP  RH WIND       PRES   REMARKS
ST CLOUD       CLEAR     58  43  57 SE5       29.88S
SAUK CENTRE    FAIR      54  42  63 SE7       29.86F
PAYNESVILLE    CLEAR     64  39  40 S7        29.89S
AITKIN         CLEAR     57  39  51 S7        29.84S
PINE RIVER     CLEAR     54  37  54 S5        29.86F
BRAINERD       CLEAR     58  39  49 S9        29.85S
STAPLES        CLEAR     55  37  50 S6        29.83S
LONG PRAIRIE   FAIR      52  41  66 SE6       29.86F
LITTLE FALLS   CLEAR     55  32  41 SE6       29.87S
LITCHFIELD     CLEAR     61  43  51 CALM      29.90S
BUFFALO        CLEAR     61  39  45 SE3       29.90F
MAPLE LAKE     CLEAR     58  43  56 S5        29.90S
HUTCHINSON     CLEAR     53  43  69 CALM      29.92S
$$
MNZ037-044-045-052-053-180200-
   East Central Minnesota

CITY           SKY/WX    TMP DP  RH WIND       PRES   REMARKS
PRINCETON      CLEAR     55  45  67 SE3       29.89F
MORA           CLEAR     59  41  51 S5        29.90F
CAMBRIDGE      CLEAR     61  45  55 CALM      29.90F
RUSH CITY      MOCLDY    58  42  56 S6        29.90F
MOOSE LAKE     CLEAR     52  39  62 CALM      29.86F
HINCKLEY       FAIR      59  43  55 S5        29.89F
CLOQUET        CLEAR     57  37  47 S3        29.88S
MCGREGOR       CLEAR     55  39  54 S6        29.86F
$$
MNZ071>073-080-081-089-090-097-098-180200-
   Southwest Minnesota

CITY           SKY/WX    TMP DP  RH WIND       PRES   REMARKS
MONTEVIDEO     CLEAR     63  37  39 SW6       29.87S
GRANITE FALLS  CLEAR     59  42  53 S8        29.89S
CANBY          CLEAR     64  39  40 SW6       29.88S
MARSHALL       CLEAR     59  42  53 S9        29.89S
REDWOOD FALLS  CLEAR     62  39  42 S9        29.90R
OLIVIA         CLEAR     55  41  58 S7        29.89S
PIPESTONE      CLEAR     59  39  47 S7        29.92F
WORTHINGTON    CLEAR     58  40  51 S8        29.95S
JACKSON        CLEAR     59  37  44 S8        29.96S
TRACY          CLEAR     65  41  40 S9        29.91S
SLAYTON        CLEAR     59 -29   2 S7        29.94S
$$
MNZ065>067-074>077-082>085-091>093-180200-
   South Central Minnesota

CITY           SKY/WX    TMP DP  RH WIND       PRES   REMARKS
NEW ULM          N/A     57  37  47 S8        29.92S
ST JAMES       CLEAR     63  37  39 S8        29.94F
FAIRMONT       CLEAR     56  44  64 S9        29.96R
GLENCOE        CLEAR     59  41  52 S5        29.91S
FARIBAULT      CLEAR     61  45  55 S6        29.95S
OWATONNA       CLEAR     61  46  59 S9        29.96S
WASECA         CLEAR     59  43  55 S7        29.97S
ALBERT LEA     CLEAR     64  46  52 S7        29.98S
$$
MNZ078>079-086>088-094>096-180200-
   Southeast Minnesota

CITY           SKY/WX    TMP DP  RH WIND       PRES   REMARKS
ROCHESTER      CLEAR     54  45  71 S10       30.00R
RED WING       CLEAR     55  43  62 CALM      29.94S
STANTON        CLEAR     60  44  54 SW6       29.93S
DODGE CENTER   CLEAR     55  43  62 S7        29.98S
WINONA         CLEAR     55  46  71 CALM      29.99R
AUSTIN         CLEAR     61  43  51 S3        29.99S
PRESTON        CLEAR     59  43  56 S8        30.01S
$$
ABBREVIATIONS USED IN REMARKS
   TC - TEMPERATURES IN CELSIUS
  WCI - WIND CHILL INDEX
   HX - HEAT INDEX
  VSB - VISIBILITY
$$




USA.gov is the U.S. government's official web portal to all federal, state and local government web resources and services.